Location: Slanting_Bridge
(35.6330°N, 80.9830°W)
Time: 05:18:16
(UTC-04:00)

Amateur Radio Satellites - All Passes

Search period start: 22 July 2014 04:48
Search period end: 23 July 2014 04:48
Location: Slanting_Bridge, 35.6330°N, 80.9830°W

Satellite Date Start Highest point End Downlink Frequencies (MHz)
Time Altitude Azimuth
PCSat 22 Jul 04:54:07 04:55:58 12° 315° (NW) 04:57:50 145.825 MHz
JAS-1B 22 Jul 04:55:32 05:04:55 58° 291° (WNW) 05:13:10 435.800 - 435.900 CW/SSB
TMSAT-1 22 Jul 05:01:29 05:06:38 54° 287° (WNW) 05:11:45 436.925 FM
Gurwin Techsat 1B 22 Jul 05:21:28 05:25:46 26° 292° (WNW) 05:30:04 435.225 FM
OPAL 22 Jul 05:51:09 05:53:53 15° 265° (W) 05:56:37 ?
AO-7 22 Jul 06:06:49 06:15:12 88° 288° (WNW) 06:23:31 29.400 - 29.500 MHz
STRAND 1 22 Jul 06:21:38 06:25:22 21° 66° (ENE) 06:29:06 ?
Uosat F 22 Jul 06:22:10 06:26:46 37° 289° (WNW) 06:31:21 435.120 FM
JAS-2 22 Jul 06:29:43 06:33:14 16° 89° (E) 06:36:32 435.800 - 435.900 CW/SSB, 435.910 FM
JAS-1B 22 Jul 06:49:51 06:53:06 12° 311° (NW) 06:56:17 435.800 - 435.900 CW/SSB
Hamsat 22 Jul 07:20:38 07:24:54 75° 101° (ESE) 07:29:12 145.90 MHz
KITSAT 1 22 Jul 07:22:43 07:30:00 39° 108° (ESE) 07:37:18 435.175 FM
Lituanica SAT-1 22 Jul 07:55:19 07:57:15 24° 37° (NE) 07:59:10 437.275 MHz beacon
STRAND 1 22 Jul 07:59:22 08:04:13 42° 261° (W) 08:09:06 ?
AO-7 22 Jul 08:01:44 08:06:49 18° 306° (NW) 08:11:54 29.400 - 29.500 MHz
JAS-2 22 Jul 08:12:47 08:18:57 60° 288° (WNW) 08:24:24 435.800 - 435.900 CW/SSB, 435.910 FM
SO-67 22 Jul 08:15:30 08:18:51 44° 99° (E) 08:22:10 435.3500 MHz FM
MaSat-1 22 Jul 08:34:46 08:39:29 31° 59° (ENE) 08:44:02 437.345 MHz
PANSAT 22 Jul 08:44:27 08:47:09 18° 165° (SSE) 08:49:50 not established
KITSAT 1 22 Jul 09:17:35 09:25:13 44° 306° (NW) 09:32:54 435.175 FM
HO-68 22 Jul 09:21:11 09:26:25 22° 94° (E) 09:31:36 435.675 MHz FM
ISS 22 Jul 09:27:48 09:31:01 41° 37° (NE) 09:34:13 145.800 FM
Lituanica SAT-1 22 Jul 09:29:28 09:30:04 11° 231° (SW) 09:30:40 437.275 MHz beacon
Saudisat 1A 22 Jul 09:56:29 10:00:54 81° 118° (ESE) 10:05:20 436.775 MHz
Oscar 11 22 Jul 09:57:51 09:58:34 10° 91° (E) 09:59:18 145.825 FM, Beacon 2401.500 USB
MaSat-1 22 Jul 10:12:10 10:16:48 31° 255° (WSW) 10:21:13 437.345 MHz
PANSAT 22 Jul 10:23:33 10:26:51 27° 178° (S) 10:30:10 not established
Oscar 10/S400 22 Jul 10:26:31 10:29:58 10° 268° (W) 10:33:29 145.825 - 145.975 CW/USB, Beacon 145.810 USB
ISS 22 Jul 11:05:20 11:07:30 16° 232° (SW) 11:09:39 145.800 FM
HO-68 22 Jul 11:07:28 11:14:29 62° 290° (WNW) 11:21:28 435.675 MHz FM
KITSAT 1 22 Jul 11:21:31 11:23:04 11° 330° (NNW) 11:24:37 435.175 FM
Sapphire 22 Jul 11:23:52 11:27:58 21° 52° (NE) 11:32:02 437.095 MHz 1200 baud AX-25 AFSK
Oscar 11 22 Jul 11:30:49 11:35:03 55° 285° (WNW) 11:39:17 145.825 FM, Beacon 2401.500 USB
FUNcube-1 22 Jul 11:31:24 11:35:25 47° 99° (E) 11:39:26 145.950 - 145.970 MHz USB
Saudisat 1A 22 Jul 11:39:33 11:41:02 11° 316° (NW) 11:42:32 436.775 MHz
PCSat 22 Jul 11:57:23 12:02:33 43° 58° (ENE) 12:07:40 145.825 MHz
PANSAT 22 Jul 12:03:34 12:06:36 22° 191° (S) 12:09:36 not established
Oscar 19 22 Jul 12:52:07 12:54:13 13° 63° (ENE) 12:56:19 437.125 CW, 437.150 USB
RS-15 22 Jul 12:55:15 12:57:11 11° 97° (E) 12:59:07 29.354 - 29.394 USB, Beacon 29.352 USB
Sapphire 22 Jul 13:06:25 13:11:39 50° 249° (WSW) 13:16:51 437.095 MHz 1200 baud AX-25 AFSK
FUNcube-1 22 Jul 13:09:47 13:11:23 12° 294° (WNW) 13:13:00 145.950 - 145.970 MHz USB
Oscar 16 22 Jul 13:16:57 13:20:59 24° 68° (ENE) 13:25:01 437.025 USB, Beacon 2401.1428
ITAMSAT 1 22 Jul 13:24:45 13:26:48 12° 62° (ENE) 13:28:52 435.822 SSB
AO-27 22 Jul 13:40:19 13:43:50 19° 65° (ENE) 13:47:21 436.795 MHz FM
PCSat 22 Jul 13:41:31 13:45:38 22° 254° (WSW) 13:49:43 145.825 MHz
Uribyol 2 22 Jul 13:44:07 13:47:55 21° 66° (ENE) 13:51:43 436.500 FM
JAS-1B 22 Jul 13:47:05 13:53:15 22° 56° (NE) 13:59:54 435.800 - 435.900 CW/SSB
AO-Echo 22 Jul 14:03:18 14:07:51 31° 69° (ENE) 14:12:27 ?
Oscar 19 22 Jul 14:27:50 14:32:55 70° 258° (WSW) 14:38:02 437.125 CW, 437.150 USB
TMSAT-1 22 Jul 14:41:13 14:44:57 20° 66° (ENE) 14:48:41 436.925 FM
SO-50 22 Jul 14:44:28 14:48:53 75° 118° (ESE) 14:53:24 436.795 FM
Oscar 16 22 Jul 14:55:29 15:00:07 35° 262° (W) 15:04:47 437.025 USB, Beacon 2401.1428
RS-15 22 Jul 14:56:22 15:07:26 68° 114° (ESE) 15:18:14 29.354 - 29.394 USB, Beacon 29.352 USB
Gurwin Techsat 1B 22 Jul 14:59:23 15:04:19 41° 71° (ENE) 15:09:17 435.225 FM
ITAMSAT 1 22 Jul 15:00:24 15:05:37 74° 257° (WSW) 15:10:51 435.822 SSB
AO-7 22 Jul 15:13:11 15:18:41 20° 55° (NE) 15:24:12 29.400 - 29.500 MHz
AO-27 22 Jul 15:17:53 15:22:56 49° 260° (W) 15:28:00 436.795 MHz FM
KITSAT 1 22 Jul 15:20:27 15:24:06 13° 35° (NE) 15:27:44 435.175 FM
Uribyol 2 22 Jul 15:22:09 15:27:04 42° 261° (W) 15:32:00 436.500 FM
JAS-1B 22 Jul 15:34:13 15:42:22 84° 256° (WSW) 15:51:56 435.800 - 435.900 CW/SSB
AO-Echo 22 Jul 15:42:01 15:46:30 29° 264° (W) 15:51:05 ?
UOSAT-12 22 Jul 15:46:46 15:50:09 21° 110° (ESE) 15:53:36 437.025 FM, 437.400 FM
Uosat F 22 Jul 15:54:48 15:58:39 23° 67° (ENE) 16:02:30 435.120 FM
TMSAT-1 22 Jul 16:19:25 16:24:29 46° 261° (W) 16:29:35 436.925 FM
OPAL 22 Jul 16:23:44 16:27:04 18° 96° (E) 16:30:25 ?
SO-50 22 Jul 16:28:02 16:29:59 13° 316° (NW) 16:31:57 436.795 FM
Gurwin Techsat 1B 22 Jul 16:40:27 16:44:24 21° 266° (W) 16:48:22 435.225 FM
AO-7 22 Jul 17:02:03 17:10:25 86° 253° (WSW) 17:18:51 29.400 - 29.500 MHz
RS-15 22 Jul 17:10:47 17:20:31 34° 316° (NW) 17:30:11 29.354 - 29.394 USB, Beacon 29.352 USB
KITSAT 1 22 Jul 17:13:31 17:21:27 57° 58° (ENE) 17:29:19 435.175 FM
UOSAT-12 22 Jul 17:25:47 17:30:01 37° 306° (NW) 17:34:22 437.025 FM, 437.400 FM
JAS-1B 22 Jul 17:29:50 17:34:18 15° 276° (W) 17:39:05 435.800 - 435.900 CW/SSB
Uosat F 22 Jul 17:32:32 17:37:10 37° 262° (W) 17:41:50 435.120 FM
OPAL 22 Jul 18:01:19 18:06:07 46° 290° (WNW) 18:10:58 ?
Hamsat 22 Jul 18:11:23 18:15:10 35° 73° (ENE) 18:18:58 145.90 MHz
JAS-2 22 Jul 18:18:50 18:26:15 48° 70° (ENE) 18:33:30 435.800 - 435.900 CW/SSB, 435.910 FM
Saudisat 1A 22 Jul 18:26:26 18:30:14 28° 53° (NE) 18:34:01 436.775 MHz
SO-67 22 Jul 18:49:04 18:49:14 10° 68° (ENE) 18:49:24 435.3500 MHz FM
AO-7 22 Jul 19:00:06 19:04:08 14° 269° (W) 19:08:12 29.400 - 29.500 MHz
KITSAT 1 22 Jul 19:09:45 19:16:19 29° 255° (WSW) 19:22:53 435.175 FM
RS-15 22 Jul 19:33:26 19:37:49 13° 349° (N) 19:42:13 29.354 - 29.394 USB, Beacon 29.352 USB
Oscar 10/S400 22 Jul 19:34:23 19:50:59 30° 144° (SE) 20:11:57 145.825 - 145.975 CW/USB, Beacon 145.810 USB
Hamsat 22 Jul 19:48:44 19:51:14 15° 267° (W) 19:53:44 145.90 MHz
HO-68 22 Jul 19:49:54 19:52:41 13° 55° (NE) 19:55:27 435.675 MHz FM
JAS-2 22 Jul 20:04:21 20:11:15 34° 265° (W) 20:18:06 435.800 - 435.900 CW/SSB, 435.910 FM
Saudisat 1A 22 Jul 20:06:04 20:09:43 26° 248° (WSW) 20:13:20 436.775 MHz
STRAND 1 22 Jul 20:12:40 20:17:48 84° 103° (ESE) 20:22:54 ?
SO-67 22 Jul 20:18:41 20:21:54 37° 262° (W) 20:25:09 435.3500 MHz FM
HO-68 22 Jul 21:32:02 21:39:11 76° 72° (ENE) 21:46:21 435.675 MHz FM
RS-15 22 Jul 21:49:48 21:56:55 19° 28° (NNE) 22:04:06 29.354 - 29.394 USB, Beacon 29.352 USB
STRAND 1 22 Jul 21:55:28 21:56:14 10° 299° (WNW) 21:57:00 ?
Oscar 11 22 Jul 22:22:38 22:26:56 78° 76° (ENE) 22:31:15 145.825 FM, Beacon 2401.500 USB
MaSat-1 22 Jul 22:25:06 22:27:30 17° 100° (E) 22:30:09 437.345 MHz
FUNcube-1 22 Jul 22:25:17 22:29:02 28° 71° (ENE) 22:32:44 145.950 - 145.970 MHz USB
SO-50 22 Jul 23:19:00 23:23:15 31° 53° (NE) 23:27:32 436.795 FM
HO-68 22 Jul 23:23:07 23:27:27 17° 268° (W) 23:31:48 435.675 MHz FM
Lituanica SAT-1 22 Jul 23:57:44 23:58:47 13° 130° (SE) 23:59:51 437.275 MHz beacon
MaSat-1 23 Jul 00:01:02 00:04:26 31° 302° (WNW) 00:08:23 437.345 MHz
RS-15 23 Jul 00:01:16 00:12:12 61° 55° (NE) 00:23:29 29.354 - 29.394 USB, Beacon 29.352 USB
FUNcube-1 23 Jul 00:01:58 00:05:23 22° 264° (W) 00:08:45 145.950 - 145.970 MHz USB
UOSAT-12 23 Jul 00:20:21 00:21:36 11° 43° (NE) 00:22:51 437.025 FM, 437.400 FM
SO-50 23 Jul 00:59:42 01:03:42 27° 248° (WSW) 01:07:44 436.795 FM
Lituanica SAT-1 23 Jul 01:29:51 01:31:36 20° 325° (NW) 01:33:20 437.275 MHz beacon
UOSAT-12 23 Jul 01:57:44 02:02:29 84° 61° (ENE) 02:07:08 437.025 FM, 437.400 FM
Sapphire 23 Jul 02:02:28 02:07:12 32° 108° (ESE) 02:11:57 437.095 MHz 1200 baud AX-25 AFSK
ISS 23 Jul 02:08:00 02:11:19 70° 136° (SE) 02:14:39 145.800 FM
RS-15 23 Jul 02:14:22 02:23:56 35° 254° (WSW) 02:33:53 29.354 - 29.394 USB, Beacon 29.352 USB
AO-Echo 23 Jul 02:16:00 02:17:39 12° 90° (E) 02:19:17 ?
PCSat 23 Jul 02:35:49 02:41:11 73° 114° (ESE) 02:46:36 145.825 MHz
Oscar 19 23 Jul 02:42:26 02:47:29 53° 100° (E) 02:52:31 437.125 CW, 437.150 USB
Oscar 16 23 Jul 03:09:33 03:14:42 79° 285° (WNW) 03:19:52 437.025 USB, Beacon 2401.1428
ITAMSAT 1 23 Jul 03:16:28 03:21:31 50° 100° (E) 03:26:30 435.822 SSB
Gurwin Techsat 1B 23 Jul 03:19:17 03:23:14 21° 94° (E) 03:27:09 435.225 FM
JAS-1B 23 Jul 03:24:31 03:33:25 43° 95° (E) 03:41:09 435.800 - 435.900 CW/SSB
AO-27 23 Jul 03:33:46 03:38:59 78° 103° (ESE) 03:44:09 436.795 MHz FM
OPAL 23 Jul 03:35:56 03:39:47 23° 65° (ENE) 03:43:38 ?
Uribyol 2 23 Jul 03:37:35 03:42:46 88° 105° (ESE) 03:47:55 436.500 FM
Sapphire 23 Jul 03:45:48 03:50:33 31° 305° (NW) 03:55:19 437.095 MHz 1200 baud AX-25 AFSK
ISS 23 Jul 03:46:19 03:48:22 15° 333° (NNW) 03:50:27 145.800 FM
AO-Echo 23 Jul 03:51:47 03:56:54 67° 285° (WNW) 04:01:49 ?
PCSat 23 Jul 04:21:57 04:25:09 16° 312° (NW) 04:28:23 145.825 MHz
Oscar 19 23 Jul 04:23:11 04:26:21 17° 295° (WNW) 04:29:32 437.125 CW, 437.150 USB
